Helena, Arkansas, United States (72342)
Lat: 34.53N, Lon: 90.59W
Wx Zone: ARZ058
Local Info
Past Weather Observations for Friday, April 24, 2015

NOTE: This archive is for the closest National Weather Service station to Helena. Information may differ from the station used for current weather conditions.

Click here for Long-term Archive

Time Weather Temperature Dewpoint Humidity Pressure Winds Precip Visibility
23:55
Overcast
Thunder Storms
57°F / 14°C 55°F / 13°C 94% 29.77 in
(1008 mb)
SE 13.8 mph
(SE 22 kph)
0.21 in
(5.33 mm)
5SM
23:35
Overcast
Thunder Storms
57°F / 14°C 55°F / 13°C 94% 29.8 in
(1009 mb)
SE 12.7 mph
(SE 20 kph)
0.13 in
(3.30 mm)
5SM
23:15
Overcast
Thunder Storms
55°F / 13°C 55°F / 13°C 100% 29.8 in
(1009 mb)
SE 12.7 mph
(SE 20 kph)
0.07 in
(1.78 mm)
5SM
22:55
Overcast
Thunder Storms
55°F / 13°C 55°F / 13°C 100% 29.8 in
(1009 mb)
E 12.7 mph
(E 20 kph)
0.16 in
(4.06 mm)
7SM
22:35
Overcast
Thunder Storms
55°F / 13°C 55°F / 13°C 100% 29.83 in
(1010 mb)
ESE 10.4 mph
(ESE 17 kph)
0.10 in
(2.54 mm)
7SM
22:15
Overcast
Thunder Storms
55°F / 13°C 55°F / 13°C 100% 29.83 in
(1010 mb)
E 6.9 mph
(E 11 kph)
0.05 in
(1.27 mm)
7SM
21:55
Overcast
55°F / 13°C 55°F / 13°C 100% 29.86 in
(1011 mb)
NE 6.9 mph
(NE 11 kph)
0.16 in
(4.06 mm)
4SM
21:35
Overcast
55°F / 13°C 55°F / 13°C 100% 29.89 in
(1012 mb)
ENE 3.5 mph
(ENE 6 kph)
0.06 in
(1.52 mm)
7SM
21:15
Overcast
Rain
55°F / 13°C 55°F / 13°C 100% 29.89 in
(1012 mb)
ENE 5.8 mph
(ENE 9 kph)
0.01 in
(0.25 mm)
10SM
20:55
Overcast
Drizzle
55°F / 13°C 54°F / 12°C 94% 29.89 in
(1012 mb)
E 4.6 mph
(E 7 kph)
0.07 in
(1.78 mm)
10SM
20:35
Overcast
Light Rain
55°F / 13°C 54°F / 12°C 94% 29.89 in
(1012 mb)
E 6.9 mph
(E 11 kph)
0.07 in
(1.78 mm)
7SM
20:15
Overcast
Rain
55°F / 13°C 54°F / 12°C 94% 29.89 in
(1012 mb)
ENE 8.1 mph
(ENE 13 kph)
0.05 in
(1.27 mm)
5SM
19:35
Overcast
Heavy Rain
55°F / 13°C 54°F / 12°C 94% 29.92 in
(1013 mb)
N 5.8 mph
(N 9 kph)
0.29 in
(7.37 mm)
2SM
19:15
Overcast
Rain
55°F / 13°C 54°F / 12°C 94% 29.89 in
(1012 mb)
N 3.5 mph
(N 6 kph)
0.01 in
(0.25 mm)
10SM
18:55
Overcast
Light Rain
55°F / 13°C 54°F / 12°C 94% 29.89 in
(1012 mb)
Calm - 10SM
18:35
Mostly Cloudy
55°F / 13°C 54°F / 12°C 94% 29.86 in
(1011 mb)
ESE 6.9 mph
(ESE 11 kph)
- 10SM
18:15
Overcast
55°F / 13°C 54°F / 12°C 94% 29.89 in
(1012 mb)
SE 8.1 mph
(SE 13 kph)
- 10SM
17:55
Overcast
Light Rain
55°F / 13°C 54°F / 12°C 94% 29.89 in
(1012 mb)
SE 12.7 mph
(SE 20 kph)
0.17 in
(4.32 mm)
10SM
17:35
Overcast
Rain
55°F / 13°C 54°F / 12°C 94% 29.83 in
(1010 mb)
ESE 13.8 mph
(ESE 22 kph)
0.14 in
(3.56 mm)
5SM
17:15
Overcast
Heavy Rain
55°F / 13°C 54°F / 12°C 94% 29.89 in
(1012 mb)
E 8.1 mph
(E 13 kph)
0.06 in
(1.52 mm)
4SM
16:55
Overcast
Rain
57°F / 14°C 54°F / 12°C 88% 29.92 in
(1013 mb)
ENE 5.8 mph
(ENE 9 kph)
0.04 in
(1.02 mm)
5SM
16:35
Overcast
Rain
57°F / 14°C 54°F / 12°C 88% 29.89 in
(1012 mb)
ENE 9.2 mph
(ENE 15 kph)
0.01 in
(0.25 mm)
10SM
16:15
Overcast
Light Rain
57°F / 14°C 54°F / 12°C 88% 29.89 in
(1012 mb)
ENE 9.2 mph
(ENE 15 kph)
- 10SM
15:55
Overcast
Light Rain
59°F / 15°C 54°F / 12°C 82% 29.92 in
(1013 mb)
E 9.2 mph
(E 15 kph)
0.02 in
(0.51 mm)
10SM
15:35
Overcast
Light Rain
59°F / 15°C 54°F / 12°C 82% 29.95 in
(1014 mb)
ENE 6.9 mph
(ENE 11 kph)
0.01 in
(0.25 mm)
10SM
15:15
Overcast
Light Rain
59°F / 15°C 54°F / 12°C 82% 29.95 in
(1014 mb)
ENE 5.8 mph
(ENE 9 kph)
0.01 in
(0.25 mm)
10SM
14:55
Overcast
Light Rain
59°F / 15°C 54°F / 12°C 82% 29.98 in
(1015 mb)
ENE 3.5 mph
(ENE 6 kph)
0.01 in
(0.25 mm)
10SM
14:35
Overcast
Light Rain
61°F / 16°C 52°F / 11°C 72% 29.98 in
(1015 mb)
ESE 3.5 mph
(ESE 6 kph)
- 10SM
14:15
Overcast
61°F / 16°C 52°F / 11°C 72% 29.98 in
(1015 mb)
SE 8.1 mph
(SE 13 kph)
- 10SM
13:55
Overcast
Light Rain
61°F / 16°C 52°F / 11°C 72% 29.98 in
(1015 mb)
SE 10.4 mph
(SE 17 kph)
- 10SM
13:35
Mostly Cloudy
Light Rain
63°F / 17°C 52°F / 11°C 68% 29.98 in
(1015 mb)
SE 8.1 mph
(SE 13 kph)
- 10SM
13:15
Mostly Cloudy
Light Rain
63°F / 17°C 50°F / 10°C 64% 29.98 in
(1015 mb)
ESE 5.8 mph
(ESE 9 kph)
- 10SM
12:55
Overcast
Drizzle
61°F / 16°C 52°F / 11°C 72% 30.01 in
(1016 mb)
Calm - 10SM
12:35
Overcast
Light Rain
61°F / 16°C 50°F / 10°C 68% 30.01 in
(1016 mb)
Calm - 10SM
12:15
Overcast
Rain
63°F / 17°C 46°F / 8°C 56% 30.01 in
(1016 mb)
S 4.6 mph
(S 7 kph)
- 10SM
11:55
Overcast
63°F / 17°C 45°F / 7°C 52% 29.98 in
(1015 mb)
SSE 11.5 mph
(SSE 19 kph)
- 10SM
11:35
Overcast
Thunder Storms
63°F / 17°C 45°F / 7°C 52% 30.01 in
(1016 mb)
SSE 13.8 mph
(SSE 22 kph)
- 10SM
11:15
Mostly Cloudy
64°F / 18°C 46°F / 8°C 52% 30.01 in
(1016 mb)
SE 9.2 mph
(SE 15 kph)
- 10SM
10:55
Partly Cloudy
64°F / 18°C 45°F / 7°C 49% 30.01 in
(1016 mb)
SE 11.5 mph
(SE 19 kph)
- 10SM
10:35
Clear
63°F / 17°C 46°F / 8°C 56% 30.01 in
(1016 mb)
SE 11.5 mph
(SE 19 kph)
- 10SM
10:15
Clear
63°F / 17°C 46°F / 8°C 56% 30.01 in
(1016 mb)
SE 11.5 mph
(SE 19 kph)
- 10SM
09:55
Clear
61°F / 16°C 46°F / 8°C 59% 30.01 in
(1016 mb)
SE 6.9 mph
(SE 11 kph)
- 10SM
09:35
Clear
61°F / 16°C 43°F / 6°C 52% 30.01 in
(1016 mb)
SE 10.4 mph
(SE 17 kph)
- 10SM
09:15
Clear
61°F / 16°C 45°F / 7°C 55% 30.04 in
(1017 mb)
SE 11.5 mph
(SE 19 kph)
- 10SM
08:55
Clear
61°F / 16°C 45°F / 7°C 55% 30.04 in
(1017 mb)
SE 9.2 mph
(SE 15 kph)
- 10SM
08:35
Clear
59°F / 15°C 45°F / 7°C 59% 30.06 in
(1018 mb)
SE 9.2 mph
(SE 15 kph)
- 10SM
08:15
Clear
59°F / 15°C 45°F / 7°C 59% 30.06 in
(1018 mb)
SE 8.1 mph
(SE 13 kph)
- 10SM
07:55
Clear
59°F / 15°C 45°F / 7°C 59% 30.04 in
(1017 mb)
SE 10.4 mph
(SE 17 kph)
- 10SM
07:35
Clear
57°F / 14°C 45°F / 7°C 63% 30.04 in
(1017 mb)
SE 9.2 mph
(SE 15 kph)
- 10SM
07:15
Clear
55°F / 13°C 45°F / 7°C 67% 30.04 in
(1017 mb)
ESE 8.1 mph
(ESE 13 kph)
- 10SM
06:55
Clear
55°F / 13°C 43°F / 6°C 63% 30.06 in
(1018 mb)
E 5.8 mph
(E 9 kph)
- 10SM
06:35
Clear
54°F / 12°C 41°F / 5°C 63% 30.06 in
(1018 mb)
E 5.8 mph
(E 9 kph)
- 10SM
06:15
Clear
54°F / 12°C 41°F / 5°C 63% 30.06 in
(1018 mb)
E 4.6 mph
(E 7 kph)
- 10SM
05:55
Clear
54°F / 12°C 41°F / 5°C 63% 30.06 in
(1018 mb)
E 4.6 mph
(E 7 kph)
- 10SM
05:35
Clear
52°F / 11°C 41°F / 5°C 67% 30.04 in
(1017 mb)
E 4.6 mph
(E 7 kph)
- 10SM
05:15
Clear
52°F / 11°C 41°F / 5°C 67% 30.04 in
(1017 mb)
ENE 4.6 mph
(ENE 7 kph)
- 10SM
04:55
Clear
52°F / 11°C 41°F / 5°C 67% 30.04 in
(1017 mb)
ENE 3.5 mph
(ENE 6 kph)
- 10SM
04:35
Clear
52°F / 11°C 41°F / 5°C 67% 30.04 in
(1017 mb)
E 3.5 mph
(E 6 kph)
- 10SM
04:15
Clear
52°F / 11°C 41°F / 5°C 67% 30.04 in
(1017 mb)
E 3.5 mph
(E 6 kph)
- 10SM
03:55
Clear
52°F / 11°C 41°F / 5°C 67% 30.04 in
(1017 mb)
ESE 3.5 mph
(ESE 6 kph)
- 10SM
03:35
Clear
54°F / 12°C 43°F / 6°C 67% 30.01 in
(1016 mb)
E 5.8 mph
(E 9 kph)
- 10SM
03:15
Clear
54°F / 12°C 43°F / 6°C 67% 30.01 in
(1016 mb)
E 6.9 mph
(E 11 kph)
- 10SM
02:55
Clear
54°F / 12°C 43°F / 6°C 67% 30.04 in
(1017 mb)
E 8.1 mph
(E 13 kph)
- 10SM
02:35
Clear
52°F / 11°C 45°F / 7°C 77% 30.04 in
(1017 mb)
E 5.8 mph
(E 9 kph)
- 10SM
02:15
Clear
54°F / 12°C 45°F / 7°C 72% 30.04 in
(1017 mb)
E 4.6 mph
(E 7 kph)
- 10SM
01:55
Clear
54°F / 12°C 45°F / 7°C 72% 30.04 in
(1017 mb)
E 3.5 mph
(E 6 kph)
- 10SM
01:35
Clear
54°F / 12°C 45°F / 7°C 72% 30.04 in
(1017 mb)
E 3.5 mph
(E 6 kph)
- 10SM
01:15
Clear
54°F / 12°C 45°F / 7°C 72% 30.04 in
(1017 mb)
E 4.6 mph
(E 7 kph)
- 10SM
00:55
Clear
52°F / 11°C 46°F / 8°C 82% 30.04 in
(1017 mb)
ENE 4.6 mph
(ENE 7 kph)
- 10SM
00:35
Clear
52°F / 11°C 46°F / 8°C 82% 30.04 in
(1017 mb)
NE 3.5 mph
(NE 6 kph)
- 10SM
00:15
Clear
54°F / 12°C 45°F / 7°C 72% 30.04 in
(1017 mb)
Calm - 10SM
Time Weather Temperature Dewpoint Humidity Pressure Winds Precip Visibility


Weather for websites

WeatherForYou.com, LLC is not responsible for any damages or problems caused by this service. Current weather conditions are obtained from the closest station including government and personal stations which may have varying degrees of accuracy. Weather forecasts are derived from the NOAA NDFD. Like all things, this site belongs to Jesus Christ... He just trusts us to maintain it. If you have any questions or comments email webmaster@weatherforyou.com

Copyright © 2015, WeatherForYou.com LLC. All rights reserved.